Погода в Комрате

Погода в Комрате : погода сейчас, прогноз погоды и архив. Всё, что Вы хотите узнать о погоде в Комрате!

Поиск расширенной информации на нашем сайте:

Другие новости

Новости СМИ2

Главная страница сайта

Новости сайта

02.10.2013

Напоминаем, что на нашем новом сайте вы можете получить высокодетализированные прогнозы погоды по пунктам России, СНГ и мира (включающие важные для авиации метеовеличины, такие как направление и скорость ветра, видимость, явления погоды, количество и форма облачности, нижняя и верхняя граница облачности), а также ознакомиться с разнообразными материалами по авиационной метеорологии и подборкой полезных ссылок на эту тему.

Сайт Метеоцентр.Азия посвящён разработке технологий оптимизации авиаметеорологического обслуживания, включая проектирование и перспективное создание нескольких автоматизированных авиаметеорологических систем:
- система выпуска высокодетальных прогностических карт явлений погоды для нижнего воздушного пространства по России и ближнему зарубежью;
- система верификации прогнозов TAF (выпускаемых синоптиками официальных АМСГ РФ и ближнего зарубежья) и AUTOTAF (выпускаемых сайтом Метеоцентр.Азия) - выявление ошибок, онлайн-сопоставление с фактической погодой METAR, автоматическое внесение коррективов в прогнозы при резком отклонении фактической погоды от прогноза, подсчёт оправдываемости прогнозов по элементам и в целом;
- система обработки, анализа и отображения авиаметеорологической информации для применения провайдерами метеорологической информации.

Рекомендуем: Важные правила бессолевой диеты для беременных.

Погода в Комрате - сегодня

Время (UTC), дата Ветер
(°,м/с) 
Видим.   Явления Облачность Т
(°С)
Тd
(°С)
f(%) Тe
(°С)
Pmin
(гПа)
dP
(гПа)
Po
(мм)
O2
(г/м3)
Тmin Tmax R s Состояние
почвы
06 26.03.17 350 (С) 20000 м  слаб. дождь{ливн. осадки}  10/10 600 м 
[Frnb|Ns]
+4.6 +3.3 91 +5  1013.2  0.2  747  296  +4.1       
09 26.03.17 350 (С) 10 км  слаб. дождь  10/10 600 м 
[Frnb|Ns]
+4.1 +2.8 91 +2  1014.6  1.3  748  297           
12 26.03.17 330 (СЗ) 20000 м  {ливн. осадки, дождь}  9/9 600 м кучево-дожд. 
[Cb calv]
+6.6 +0.1 63 +4  1015.5  749  295           
15 26.03.17 330 (СЗ) 20000 м    10/10 600 м кучево-дожд. 
[Cb calv]
+5.5 +0.1 68 +3  1016.5  750  296           
18 26.03.17 330 (СЗ) 10 км    10/10 600 м кучево-дожд. 
[Cb calv]
+4.1 +1.3 82 +2  1019.4  2.7  752  298    +6.7  0.9     
21 26.03.17 340 (С) 10 км    10/10 600 м 
[Sc]
+3.8 +1.2 83 +2  1021.6  2.2  754  299           
00 27.03.17 310 (СЗ) 10 км    ясно 
+2 -0.3 85 1022.4  0.6  754  302           
03 27.03.17 290 (З) 10 км    ясно 
+1 -0.3 91 -2  1022.5  0.1  754  303           
06 27.03.17 290 (З) 20000 м    ясно 
+3.3 +0.4 81 +2  1022.6  0.2  754  300  +0.8         
09 27.03.17 290 (З) 20000 м    9/4 600 м средняя 
[Cu hum|Ac As]
+6.8 -0.9 58 +5  1021.5  -0.9  754  296           
12 27.03.17 280 (З) 20000 м    9/6 600 м средняя 
[Sc diur, vesp|Ac As]
+9.8 -1.3 46 +9  1019  -2.2  752  293           
15 27.03.17 280 (З) 20000 м    3/3 600 м 
[Sc]
+12 -0.2 43 +11  1017.3  -1.6  751  290           
18 27.03.17 260 (З) 10 км    ясно 
+8.7 +0.7 57 +8  1018.5  751  293    +12.2       
21 27.03.17 270 (З) 10 км    ясно 
+8.6 +1 59 +7  1019.4  0.9  752  294           
00 28.03.17 270 (З) 10 км    ясно 
+8 +1.6 64 +7  1019.8  0.4  752  294           
03 28.03.17 260 (З) 10 км    ясно 
+6.5 +1.6 71 +5  1019.4  -0.5  752  296           
06 28.03.17 250 (З) 20000 м    ясно 
+9.9 +3.2 63 +9  1019.4  0.2  752  292  +6.1         
09 28.03.17 280 (З) 20000 м    ясно 
+16.1 +3.9 44 +16  1018.3  -0.8  752  285           
12 28.03.17 270 (З) 20000 м    ясно 
+19.2 +2.1 32 +20  1016.2  -1.9  750  282           
15 28.03.17 280 (З) 20000 м    ясно 
+19.7 +2.1 31 +20  1014.8  -1.3  749  281           
18 28.03.17 310 (СЗ) 10 км    ясно 
+15.6 +2.7 42 +16  1016.9  1.8  751  286    +20       
21 28.03.17 290 (З) 10 км    ясно 
+14.4 +2 43 +15  1018.7  1.7  752  287           
00 29.03.17 240 (ЮЗ) 10 км    ясно 
+10.2 +2.1 57 +11  1020.1  1.2  753  292           
03 29.03.17 тихо ()   10 км    ясно 
+7.9 +1.9 66 +8  1020.9  0.6  753  295           
06 29.03.17 тихо ()   20000 м    ясно 
+11.8 +3.6 57 +12  1021.3  0.7  754  291  +7.8         
Время (UTC), дата Ветер
(°,м/с) 
Видим.   Явления Облачность Т
(°С)
Тd
(°С)
f(%) Тe
(°С)
Pmin
(гПа)
dP
(гПа)
Po
(мм)
O2
(г/м3)
Тmin Tmax R s Состояние
почвы

Для получения пояснительной информации подведите курсор к названию столбца.

ПОГОДА в Комрате - архив

Всё, что Вы хотите узнать о погоде в Комрате - удобно и подробно!

Выберите нужную дату (начиная с 1 января 2015* года) и нажмите кнопку "Найти".
Будут отображены архивные сводки погоды по пункту Комрат, начиная с указанной даты.


Отображать данные в формате CSV (для использования в таблицах Excel)


Внимание! Наш архив погоды предназначен исключительно для личного некоммерческого использования в познавательных целях. Если Вам необходимы официальные справки о состоянии погоды (для производственных, юридических, коммерческих и т.п. целей), обращайтесь в органы Росгидромета.

*Примечание: данная дата относится к архиву по метеостанциям СССР (Россия, СНГ, Балтия).
Архив по метеостанциям Зарубежной Европы и Азии (кроме Китая) хранится 10 дней, по другим регионам земного шара (Китай, Африка, Америка, Австралия, Океания) - 1 день.

Комрат - район местоположения метеостанции


Название, широта, долгота, высота метеостанции:
Комрат 46.3°ш. 28.6°д. 133 м над ур. моря [Молдавия]

Дополнительная информация

В oтличие oт бoльшинства пoгoдных сайтoв мы публикуем пoдрoбную метеoинфoрмацию в детальнoм прoфессиoнальнoм фoрмате.

Характеристики температуры и влажнoсти вoздуха измеряются на высoте 2 м в тени вдали oт зданий и деревьев.
Скoрoсть ветра измеряется на высoте 10 м (на урoвне рoста челoвека скoрoсть ветра ниже в 1.5-2 раза). Если метеoстанция нахoдится в гoрoде или в лесу, тo скoрoсть ветра занижена на 2-4 м/с пo сравнению с oткрытым местoм. Скoрoсть ветра над акватoриями крупных рек и oзёр, а также на вершинах хoлмoв на 2-5 м/с выше, чем в oбычных услoвиях.
Атмoсфернoе давление в разных тoчках местнoсти мoжет значительнo oтличаться oт давления на метеoстанции, в зависимoсти oт услoвий рельефа (при пoдъёме на 10 м давление пoнижается примернo на 1 мм рт.ст.).